This is the latest recevied weather packets stored in our database for station/object I1SXT-13. If no packets are shown the sender has not sent any weather packets the latest 10 day(s).
| Time | Temp. | Humidity | Pressure | Rain* | Wind** | Luminosity | Snow |
|---|---|---|---|---|---|---|---|
| 1778170764 | 18.89° C | 69% | 1014.1 hPa | 0 mm | - | - | - |
| 1778170170 | 18.89° C | 72% | 1015.2 hPa | 0 mm | - | - | - |
| 1778169865 | 18.33° C | 68% | 1014.7 hPa | 0 mm | - | - | - |
| 1778169568 | 18.89° C | 69% | 1014.8 hPa | 0 mm | - | - | - |
| 1778169265 | 19.44° C | 71% | 1014.5 hPa | 0 mm | - | - | - |
| 1778168967 | 18.89° C | 71% | 1014.8 hPa | 0 mm | - | - | - |
| 1778168670 | 18.89° C | 73% | 1014.4 hPa | 0 mm | - | - | - |
| 1778168069 | 20° C | 70% | 1014.5 hPa | 0 mm | - | - | - |
| 1778167765 | 19.44° C | 70% | 1014.9 hPa | 0 mm | - | - | - |
| 1778167468 | 19.44° C | 71% | 1014.9 hPa | 0 mm | - | - | - |
| 1778167163 | 19.44° C | 71% | 1014.5 hPa | 0 mm | - | - | - |
| 1778166866 | 18.89° C | 71% | 1014.7 hPa | 0 mm | - | - | - |
| 1778166569 | 19.44° C | 71% | 1015.3 hPa | 0 mm | - | - | - |
| 1778165968 | 19.44° C | 70% | 1014.6 hPa | 0 mm | - | - | - |
| 1778165664 | 20° C | 69% | 1014.9 hPa | 0 mm | - | - | - |
| 1778165367 | 20° C | 69% | 1015.1 hPa | 0 mm | - | - | - |
| 1778165070 | 20° C | 68% | 1014.7 hPa | 0 mm | - | - | - |
| 1778164765 | 20° C | 67% | 1014.8 hPa | 0 mm | - | - | - |
| 1778164468 | 20° C | 68% | 1014.4 hPa | 0 mm | - | - | - |
| 1778164164 | 21.11° C | 66% | 1015 hPa | 0 mm | - | - | - |
| 1778163570 | 21.11° C | 67% | 1016 hPa | 0 mm | - | - | - |
| 1778163266 | 20° C | 68% | 1015.2 hPa | 0 mm | - | - | - |
| 1778162969 | 21.11° C | 68% | 1015.6 hPa | 0 mm | - | - | - |
| 1778162665 | 19.44° C | 71% | 1015.3 hPa | 0 mm | - | - | - |
| 1778162367 | 20.56° C | 68% | 1015.5 hPa | 0 mm | - | - | - |
* Rain since midnight (hover to see other rain measurements)
** Current wind speed in m/s (hover to see current wind gust speed)